Weather History for KRUE - October, 2012

Change the Weather History Date:

Wednesday, October 17, 2012

  Actual Average (KHOT) Record (KHOT)
Temperature  
Mean Temperature 64 °F -  
Max Temperature 70 °F 74 °F 90 °F (1953)
Min Temperature 54 °F 49 °F 34 °F (2001)
Degree Days  
Heating Degree Days 2    
Growing Degree Days 14 (Base 50)    
Moisture  
Dew Point 59 °F    
Average Humidity 84    
Maximum Humidity 93    
Minimum Humidity 65    
Precipitation  
Precipitation 0.01 in - - ()
Sea Level Pressure  
Sea Level Pressure 29.61 in    
Wind  
Wind Speed 3 mph (WSW)    
Max Wind Speed 10 mph    
Max Gust Speed -    
Visibility 9 miles    
Events Thunderstorm    
Averages and records for this station are not official NWS values.
T = Trace of Precipitation, MM = Missing Value Source: NWS Daily Summary

Daily Weather History Graph

Daily Weather History Graph

Search for Another Location

Airport or City:

Trip Planner

Search our weather history database for the weather conditions in past years. The results will help you decide how hot, cold, wet, or windy it might be!

Date:

Astronomy

Oct. 17, 2012 Rise Set
Actual Time 7:20 AM CDT 6:34 PM CDT
Civil Twilight 6:54 AM CDT 6:59 PM CDT
Nautical Twilight 6:25 AM CDT 7:29 PM CDT
Astronomical Twilight 5:56 AM CDT 7:58 PM CDT
Moon 9:49 AM CDT (10/17) 8:17 PM CDT (10/17)
Length of Visible Light 12h 04m
Length of Day
11h 13m
Waxing Crescent, 7% of the Moon is Illuminated
Oct 17
Waxing Crescent
Oct 21
First Quarter
Oct 29
Full
Nov 6
Last Quarter
Nov 13
New

Hourly Weather History & Observations

Time (CDT) Temp. Dew Point Humidity Pressure Visibility Wind Dir Wind Speed Gust Speed Precip Events Conditions
12:53 AM 59.0 °F 53.1 °F 81% 29.71 in 10.0 mi East 3.5 mph - N/A   Clear
1:53 AM 61.0 °F 55.0 °F 81% 29.70 in 10.0 mi SSE 3.5 mph - N/A   Clear
2:53 AM 57.9 °F 54.0 °F 87% 29.69 in 10.0 mi Calm Calm - N/A   Clear
3:53 AM 60.1 °F 55.0 °F 83% 29.64 in 10.0 mi Variable 3.5 mph - N/A   Clear
4:53 AM 59.0 °F 55.0 °F 87% 29.63 in 10.0 mi Calm Calm - N/A   Clear
5:53 AM 57.9 °F 55.9 °F 93% 29.65 in 9.0 mi Calm Calm - N/A   Mostly Cloudy
6:53 AM 60.1 °F 57.0 °F 90% 29.62 in 10.0 mi Calm Calm - N/A   Clear
7:53 AM 63.0 °F 57.9 °F 84% 29.62 in 10.0 mi Calm Calm - N/A   Overcast
8:38 AM 64.4 °F 59.0 °F 83% 29.62 in 10.0 mi Variable 3.5 mph - N/A   Overcast
8:53 AM 64.0 °F 59.0 °F 84% 29.60 in 10.0 mi Calm Calm - N/A   Overcast
9:53 AM 64.9 °F 59.0 °F 81% 29.60 in 10.0 mi East 3.5 mph - N/A   Overcast
10:53 AM 68.0 °F 61.0 °F 78% 29.58 in 10.0 mi Calm Calm - N/A   Overcast
11:53 AM 69.1 °F 62.1 °F 78% 29.57 in 10.0 mi Variable 4.6 mph - N/A   Overcast
12:53 PM 66.9 °F 63.0 °F 87% 29.59 in 2.5 mi SSW 8.1 mph - N/A   Overcast
1:00 PM 66.2 °F 62.6 °F 88% 29.60 in 4.0 mi Variable 6.9 mph - N/A   Overcast
1:53 PM 66.9 °F 64.0 °F 90% 29.56 in 4.0 mi Calm Calm - N/A   Overcast
2:53 PM 66.9 °F 64.0 °F 90% 29.55 in 4.0 mi Calm Calm - N/A   Overcast
3:43 PM 68.0 °F 64.4 °F 88% 29.55 in 8.0 mi South 5.8 mph - N/A   Overcast
3:53 PM 69.1 °F 64.9 °F 87% 29.51 in 9.0 mi Variable 6.9 mph - N/A   Overcast
4:53 PM 70.0 °F 64.0 °F 81% 29.52 in 10.0 mi Variable 4.6 mph - N/A   Overcast
5:53 PM 70.0 °F 64.0 °F 81% 29.52 in 9.0 mi Calm Calm - N/A   Scattered Clouds
6:53 PM 69.1 °F 64.9 °F 87% 29.53 in 10.0 mi Calm Calm - N/A   Mostly Cloudy
7:53 PM 68.0 °F 64.0 °F 87% 29.58 in 9.0 mi NW 9.2 mph - N/A Thunderstorm Thunderstorm
8:27 PM 69.8 °F 60.8 °F 73% 29.64 in 10.0 mi WNW 9.2 mph - 0.01 in   Mostly Cloudy
8:53 PM 66.9 °F 57.0 °F 70% 29.65 in 10.0 mi NW 10.4 mph - 0.01 in   Mostly Cloudy
9:53 PM 64.9 °F 53.1 °F 65% 29.68 in 10.0 mi NW 6.9 mph - N/A   Clear
10:53 PM 57.0 °F 52.0 °F 83% 29.70 in 10.0 mi Calm Calm - N/A   Clear
11:53 PM 54.0 °F 52.0 °F 93% 29.73 in 10.0 mi Calm Calm - N/A   Clear